Probability
84 81 84 84 87 87 84 81 84 84 84 77 74 74 77 71 71 52 58 90 94 94 94 90 94 97 97 100 100 100 100 100 100 100 100 100 100 100 100 100 100 94 94
77 81 74 84 81 81 77 84 74 81 77 77 77 74 84 71 65 74 74 87 90 90 94 94 90 94 97 97 100 100 100 100 100 100 100 100 100 100 100 100 100 97 90
61 65 61 58 55 58 65 68 48 68 68 58 61 68 77 81 65 74 77 81 77 87 94 97 97 97 100 97 100 100 100 100 100 100 100 100 100 100 100 100 100 100 94
52 48 39 42 48 45 39 42 45 42 45 65 58 52 65 68 58 65 68 84 81 65 84 94 97 100 97 97 97 100 100 100 100 100 100 100 100 100 100 100 100 97 81
29 23 23 32 35 29 35 29 29 35 39 52 52 52 42 48 61 39 42 48 71 74 68 84 94 90 90 87 94 100 100 100 100 100 100 100 100 100 94 94 94 87 71
16 13 10 13 10 16 23 23 26 39 35 42 16 13 23 29 32 32 39 26 45 45 45 55 81 65 87 97 94 94 100 100 97 94 97 97 100 94 84 87 81 77 61
3 6 3 3 10 10 6 13 13 13 16 19 19 16 10 13 16 29 32 29 26 26 39 48 65 65 71 55 77 94 90 97 90 90 90 100 100 94 84 81 65 52 42
3 3 6 6 6 6 13 10 10 6 6 6 10 10 3 3 10 3 19 29 19 19 19 19 65 71 55 65 45 65 81 87 90 84 94 90 97 94 84 84 45 26 19
3 3 3 3 3 3 6 6 6 3 3 6 6 3 0 3 10 6 3 13 16 29 23 23 29 52 58 68 68 23 55 55 81 84 87 87 81 77 81 74 55 26 19
0 0 3 3 3 3 3 3 0 3 3 3 10 6 0 0 0 0 0 6 6 13 10 13 19 32 45 58 68 39 26 29 42 71 87 84 81 65 71 68 71 52 19
0 0 3 3 6 3 0 0 0 0 3 3 0 3 3 3 0 0 0 0 3 0 10 10 23 29 42 48 65 48 10 10 26 39 58 74 74 71 68 74 84 84 68
0 0 0 0 3 0 0 0 0 0 0 0 0 0 0 0 0 0 0 0 0 0 3 6 10 16 32 35 29 10 3 3 3 13 29 48 61 68 68 81 84 87 84
0 3 0 0 0 0 0 0 0 0 0 0 0 0 0 0 0 0 0 0 0 0 3 3 3 19 13 23 42 3 3 0 0 0 6 13 32 52 42 71 81 81 87
0 0 0 0 0 0 0 0 0 0 0 0 0 0 0 0 3 3 0 0 0 0 0 3 3 10 16 23 10 0 6 0 0 0 0 0 0 10 23 19 23 42 58
0 0 0 0 0 0 0 0 0 0 0 0 0 0 0 0 0 3 0 0 0 0 0 0 0 0 3 23 0 6 23 0 0 0 0 0 0 0 3 3 3 10 13
0 0 0 0 0 0 0 0 0 0 0 0 0 0 0 0 0 0 3 3 0 0 0 0 3 3 0 0 0 6 13 0 0 0 0 0 0 0 0 0 0 0 0
0 0 0 0 0 0 0 0 0 0 0 0 0 0 0 0 0 0 0 0 3 3 0 0 0 0 6 6 0 6 6 3 10 0 0 0 0 0 0 0 0 0 0
0 0 0 0 0 0 0 0 0 0 0 0 0 0 0 0 0 0 0 0 0 0 0 0 0 0 6 6 0 10 3 3 3 0 0 0 0 0 0 0 0 0 0
0 0 0 0 0 0 0 0 0 0 0 0 0 0 0 0 0 0 0 0 0 0 0 0 0 3 0 3 0 0 0 10 3 0 0 0 0 0 0 0 0 0 0
0 0 0 0 0 0 0 0 0 0 0 0 0 0 0 0 0 0 0 0 0 0 0 0 0 0 0 0 0 3 6 6 3 0 0 0 0 0 0 0 0 0 0
0 0 0 0 0 0 0 0 0 0 0 0 0 0 0 0 0 0 0 0 0 0 0 0 0 0 0 3 0 0 3 6 3 0 0 0 0 0 0 0 0 0 0
0 0 0 0 0 0 0 0 0 0 0 0 0 0 0 0 0 0 0 0 0 0 0 0 0 0 0 0 3 0 0 3 3 3 6 0 0 0 0 0 0 0 0
0 0 0 0 0 0 0 0 0 0 0 0 0 0 0 0 0 0 0 0 0 0 0 0 0 0 0 0 3 0 0 0 0 0 3 0 0 0 0 0 0 0 0
0 0 0 0 0 0 0 0 0 0 0 0 0 0 0 0 0 0 0 0 0 0 0 0 0 0 0 0 3 3 3 3 3 3 6 3 3 3 0 0 0 0 0
0 0 0 0 0 0 0 0 0 0 0 0 0 0 0 0 0 0 0 0 0 0 0 0 0 0 0 0 0 0 3 0 0 3 3 6 3 3 0 0 0 0 0
0 0 0 0 0 0 0 0 0 0 0 0 0 0 0 0 0 0 0 0 0 0 0 0 0 0 0 0 0 0 0 0 0 0 0 0 0 0 0 0 0 0 0
Height
5868 5868 5868 5867 5867 5867 5867 5867 5868 5868 5868 5868 5869 5869 5870 5871 5872 5873 5874 5876 5878 5880 5882 5884 5886 5889 5891 5893 5895 5898 5900 5902 5905 5907 5909 5911 5913 5915 5917 5919 5921 5922 5924
5862 5863 5863 5862 5862 5862 5862 5862 5862 5862 5862 5862 5863 5863 5864 5865 5867 5868 5868 5870 5872 5874 5876 5879 5881 5883 5886 5888 5891 5894 5896 5899 5901 5904 5907 5909 5911 5913 5915 5917 5919 5921 5923
5857 5857 5857 5856 5856 5856 5856 5856 5856 5856 5856 5856 5856 5857 5858 5859 5860 5861 5862 5863 5865 5868 5870 5872 5875 5878 5880 5883 5886 5889 5892 5895 5898 5900 5903 5906 5909 5911 5913 5915 5917 5919 5921
5852 5851 5851 5851 5850 5850 5850 5850 5849 5849 5849 5849 5850 5851 5852 5852 5853 5854 5855 5857 5858 5861 5863 5866 5869 5871 5874 5877 5880 5883 5887 5890 5893 5896 5899 5903 5905 5908 5910 5913 5915 5917 5919
5846 5845 5845 5844 5844 5843 5843 5843 5842 5842 5842 5843 5843 5844 5845 5846 5847 5848 5848 5850 5852 5854 5856 5859 5862 5865 5868 5871 5874 5878 5881 5885 5888 5892 5895 5898 5901 5904 5907 5910 5912 5914 5917
5840 5839 5838 5837 5836 5836 5835 5835 5835 5835 5835 5835 5836 5836 5837 5838 5839 5841 5841 5843 5844 5847 5849 5851 5854 5857 5861 5865 5868 5871 5875 5879 5882 5886 5890 5893 5897 5900 5903 5906 5909 5911 5913
5834 5832 5830 5829 5829 5828 5827 5827 5827 5826 5826 5827 5828 5828 5829 5830 5831 5833 5834 5836 5838 5839 5841 5844 5847 5850 5854 5857 5861 5864 5868 5872 5876 5880 5884 5888 5892 5895 5899 5902 5905 5907 5910
5826 5824 5823 5822 5821 5820 5819 5819 5818 5818 5818 5818 5819 5820 5821 5823 5823 5825 5826 5828 5830 5832 5834 5837 5839 5843 5846 5850 5854 5858 5861 5865 5869 5873 5877 5881 5886 5890 5893 5897 5900 5903 5906
5819 5817 5815 5814 5813 5811 5811 5810 5809 5809 5809 5809 5810 5811 5812 5813 5815 5817 5818 5819 5821 5824 5826 5829 5832 5835 5838 5842 5846 5850 5854 5858 5862 5866 5870 5875 5879 5883 5888 5891 5895 5898 5901
5811 5809 5807 5806 5804 5803 5802 5801 5800 5800 5800 5800 5800 5801 5802 5803 5805 5807 5809 5811 5813 5815 5818 5821 5824 5827 5829 5833 5837 5842 5846 5850 5854 5858 5863 5868 5872 5877 5881 5885 5889 5893 5896
5803 5801 5799 5797 5795 5794 5793 5792 5791 5790 5790 5790 5790 5791 5792 5793 5795 5797 5799 5801 5804 5806 5809 5812 5815 5818 5821 5825 5829 5833 5838 5842 5847 5851 5856 5860 5865 5870 5875 5879 5883 5887 5891
5796 5793 5790 5788 5786 5785 5783 5782 5781 5780 5780 5779 5780 5780 5781 5783 5785 5786 5789 5791 5793 5796 5799 5803 5806 5809 5812 5816 5820 5825 5829 5834 5839 5843 5848 5853 5858 5863 5868 5873 5877 5881 5885
5788 5785 5782 5780 5777 5775 5774 5772 5771 5770 5769 5769 5769 5769 5770 5772 5774 5776 5778 5781 5783 5786 5789 5793 5796 5799 5803 5806 5811 5816 5820 5825 5830 5835 5840 5845 5850 5855 5861 5866 5870 5874 5878
5781 5777 5774 5771 5769 5766 5764 5763 5761 5760 5759 5759 5758 5759 5759 5760 5762 5764 5767 5770 5773 5776 5779 5782 5786 5789 5793 5797 5801 5806 5811 5816 5821 5826 5832 5837 5843 5848 5854 5859 5864 5868 5872
5774 5770 5767 5763 5760 5758 5755 5753 5751 5749 5748 5748 5747 5748 5748 5749 5751 5753 5755 5758 5762 5765 5769 5772 5775 5779 5782 5787 5791 5796 5801 5807 5812 5817 5823 5829 5835 5841 5847 5852 5857 5861 5866
5767 5763 5759 5755 5752 5749 5746 5743 5741 5739 5738 5737 5736 5736 5737 5737 5739 5741 5743 5746 5749 5753 5757 5761 5764 5768 5772 5777 5781 5786 5791 5795 5802 5808 5814 5820 5826 5832 5839 5844 5850 5855 5859
5760 5756 5751 5747 5743 5740 5736 5733 5731 5729 5727 5726 5725 5725 5725 5726 5727 5729 5731 5734 5737 5741 5745 5749 5753 5757 5761 5765 5770 5776 5781 5786 5792 5798 5805 5811 5817 5824 5830 5836 5842 5847 5852
5752 5747 5743 5738 5734 5729 5726 5722 5720 5718 5716 5715 5714 5714 5714 5714 5716 5717 5719 5722 5725 5728 5733 5737 5741 5745 5750 5755 5760 5766 5771 5776 5782 5789 5795 5802 5808 5815 5822 5828 5834 5840 5845
5744 5739 5734 5729 5724 5719 5715 5712 5709 5707 5705 5703 5702 5702 5702 5702 5703 5704 5706 5709 5712 5715 5720 5725 5729 5733 5738 5743 5749 5755 5761 5767 5773 5779 5785 5792 5799 5806 5813 5819 5826 5832 5838
5736 5731 5725 5720 5714 5709 5705 5701 5698 5696 5693 5692 5690 5689 5689 5689 5690 5691 5693 5695 5698 5702 5706 5711 5717 5721 5726 5731 5738 5744 5750 5757 5763 5769 5776 5783 5789 5796 5803 5810 5817 5824 5830
5728 5722 5716 5710 5704 5699 5695 5691 5687 5684 5682 5680 5678 5677 5676 5676 5676 5677 5679 5681 5684 5688 5693 5698 5704 5709 5714 5719 5726 5732 5739 5746 5752 5759 5766 5773 5780 5787 5794 5801 5808 5815 5822
5719 5713 5707 5700 5695 5689 5685 5680 5677 5673 5670 5668 5666 5664 5663 5663 5664 5664 5666 5668 5671 5675 5680 5684 5690 5696 5701 5707 5714 5721 5728 5735 5743 5750 5755 5763 5770 5778 5785 5792 5800 5807 5813
5711 5704 5698 5692 5686 5680 5675 5671 5667 5663 5660 5657 5654 5652 5651 5651 5651 5652 5653 5655 5658 5661 5666 5671 5677 5682 5688 5696 5702 5709 5717 5724 5732 5739 5745 5753 5760 5768 5776 5783 5790 5797 5804
5703 5695 5689 5683 5677 5671 5666 5661 5657 5653 5649 5646 5643 5641 5640 5639 5639 5639 5640 5642 5645 5648 5653 5658 5664 5669 5674 5681 5689 5697 5705 5712 5720 5728 5735 5742 5750 5758 5766 5773 5781 5788 5795
5694 5687 5680 5674 5668 5662 5657 5652 5647 5643 5639 5636 5633 5631 5629 5627 5627 5627 5628 5630 5632 5636 5639 5644 5650 5655 5662 5669 5677 5685 5693 5701 5709 5717 5725 5732 5739 5747 5755 5763 5771 5779 5786
5686 5679 5672 5665 5659 5653 5647 5642 5638 5634 5630 5626 5623 5620 5618 5616 5615 5615 5616 5618 5620 5623 5627 5631 5637 5643 5649 5657 5665 5673 5682 5690 5698 5706 5714 5722 5729 5737 5745 5753 5761 5769 5776
Wind_Speed
25 25 27 26 25 25 24 24 23 23 23 23 23 22 23 22 23 23 24 26 27 28 28 28 27 26 25 24 24 23 22 21 20 19 18 17 16 15 15 14 14 13 12
25 26 26 26 25 25 24 24 24 24 25 25 24 23 23 24 25 25 25 26 27 29 30 30 29 29 28 27 27 25 24 23 22 21 20 19 18 17 16 16 15 14 13
24 24 24 24 24 24 25 25 25 25 25 25 25 26 26 25 26 26 27 27 27 30 32 32 32 32 31 30 29 28 27 26 25 24 22 21 21 20 19 18 17 16 15
25 25 26 26 26 26 26 26 27 27 26 25 25 26 27 27 27 27 28 29 29 29 32 33 33 33 33 32 32 31 30 29 28 26 25 24 23 22 21 20 19 18 17
25 26 27 28 29 29 28 29 29 28 28 28 27 28 28 28 28 28 28 29 30 31 32 34 35 35 34 33 34 34 33 32 31 30 28 27 26 24 23 22 21 20 19
24 26 27 28 30 31 31 31 31 31 31 30 30 30 30 30 30 30 30 30 30 32 33 34 35 36 36 35 35 36 35 36 35 33 31 30 28 27 25 24 23 22 21
26 26 27 28 29 31 31 32 32 32 33 33 33 32 32 33 32 32 31 31 30 32 33 34 35 36 37 37 37 37 37 37 36 36 35 33 31 29 28 26 25 24 23
27 27 28 29 29 30 31 32 33 33 33 34 34 33 34 34 34 33 33 33 33 33 34 34 37 37 37 38 37 38 38 39 37 37 37 36 34 32 30 29 27 26 25
28 28 29 30 30 31 31 32 32 33 34 34 34 34 35 35 35 35 35 35 35 35 35 36 37 38 39 38 38 39 39 39 38 37 38 38 36 34 33 31 30 28 27
29 29 30 30 30 31 31 32 32 33 34 35 35 36 36 36 37 36 36 37 38 37 37 38 38 39 40 39 39 39 39 40 39 39 39 39 38 36 34 33 32 30 28
30 30 30 30 30 31 31 32 32 33 34 35 36 36 37 37 38 38 38 39 39 39 39 39 39 40 41 41 40 41 40 40 40 40 40 39 39 38 36 35 33 31 30
30 30 30 31 31 31 32 32 33 34 35 35 36 36 37 38 39 40 40 40 40 40 41 41 40 40 41 42 42 42 43 42 41 42 42 41 41 40 38 36 35 33 32
30 30 31 31 31 31 32 33 33 34 35 36 37 37 38 39 40 40 41 41 41 41 42 42 42 42 42 44 43 43 44 44 43 43 43 42 42 41 40 38 36 34 33
30 30 30 30 31 32 33 34 34 34 35 36 37 38 39 39 40 41 41 42 43 42 43 43 43 43 43 44 44 45 44 45 45 45 44 43 42 41 40 39 36 35 33
29 30 30 31 31 32 32 33 34 34 35 36 37 38 39 40 41 42 42 42 43 44 44 44 44 44 44 45 45 45 46 45 46 46 46 45 43 42 41 39 37 35 33
29 28 29 30 30 31 32 32 33 33 34 35 36 37 38 39 40 41 42 43 44 44 45 45 45 45 45 46 46 46 46 45 46 46 46 46 45 43 42 41 39 37 35
28 29 29 30 31 32 33 33 34 34 34 34 35 36 37 38 40 41 42 42 43 44 45 46 47 47 46 46 47 46 46 46 46 47 47 47 46 45 44 42 40 38 36
30 30 30 31 32 33 33 33 33 34 34 35 35 36 37 38 40 41 42 43 44 44 45 45 47 48 48 46 46 48 47 47 47 47 48 48 47 46 45 43 42 40 38
31 32 32 33 33 33 33 33 33 33 34 35 36 37 38 39 40 42 43 44 45 46 46 46 46 47 49 48 48 48 48 48 47 47 47 48 47 47 46 45 43 42 40
33 34 35 35 34 34 33 33 33 33 34 35 35 36 37 39 40 42 43 44 46 47 47 47 47 48 50 50 50 50 49 48 48 48 48 48 47 47 47 47 45 44 42
35 36 36 36 35 34 33 32 32 33 33 34 34 35 37 38 39 40 42 43 45 46 47 47 48 48 50 51 51 51 51 50 49 49 50 50 49 48 48 48 46 45 43
37 37 37 36 34 34 33 32 32 32 32 33 34 35 36 36 37 38 39 41 43 45 46 47 48 49 50 51 52 52 52 51 50 49 50 51 51 50 49 49 48 46 44
39 38 37 35 34 33 33 32 32 31 31 32 32 33 33 34 35 36 38 40 41 43 45 47 48 48 50 52 52 54 54 52 51 49 49 51 51 51 51 49 49 47 45
39 38 36 35 34 34 33 32 31 31 31 30 30 31 32 33 34 35 37 38 40 42 44 45 47 48 50 52 53 54 55 53 51 49 49 50 52 52 52 51 49 48 47
39 38 37 35 35 34 33 32 31 29 29 29 29 30 30 32 34 35 35 37 38 41 43 45 46 48 50 53 54 54 54 55 52 51 50 49 51 52 52 52 51 49 48
39 37 36 35 35 33 32 31 30 29 29 29 29 30 30 31 32 33 34 36 37 39 41 43 45 47 49 52 54 55 54 55 55 53 52 49 49 51 52 52 52 51 49
Wind_Direction
267 267 265 269 270 271 271 271 273 271 270 268 265 263 259 257 254 251 247 241 238 234 232 231 230 228 226 224 222 219 217 217 216 216 216 214 213 211 209 208 206 204 203
272 269 270 271 271 271 270 273 275 273 271 269 267 264 261 258 255 252 251 248 242 237 235 233 231 229 227 226 225 223 220 218 217 218 218 217 216 215 213 212 212 210 209
276 275 275 275 274 271 272 273 274 274 271 269 266 263 262 261 258 256 252 249 246 240 237 235 233 231 229 227 227 225 222 221 219 219 219 220 220 219 218 217 216 215 213
279 277 275 275 274 273 273 274 275 274 271 268 265 264 263 261 259 258 255 249 247 243 238 235 234 232 232 230 228 227 224 222 221 220 221 221 221 221 222 222 221 220 219
280 279 276 275 274 274 273 273 274 273 270 268 265 263 262 260 258 259 257 252 247 245 241 237 234 233 233 233 230 228 227 224 223 222 222 222 223 223 224 224 224 224 224
284 282 279 277 275 274 274 273 273 272 270 267 265 263 262 260 257 257 256 253 250 245 243 238 235 234 232 233 232 230 228 227 225 223 223 223 224 224 225 226 226 227 228
286 284 282 280 277 275 274 273 272 271 269 266 265 262 261 260 258 257 254 252 249 244 241 238 234 234 233 233 233 232 230 228 229 226 223 223 224 225 226 227 228 229 230
290 287 283 282 280 277 274 273 272 271 269 267 265 262 260 258 257 255 252 250 248 244 241 239 236 235 234 234 234 233 233 231 230 228 224 223 224 225 226 227 228 229 231
292 290 286 283 280 278 276 274 272 271 269 266 264 262 259 256 255 253 251 249 247 245 242 241 239 236 234 234 234 234 234 232 231 229 226 224 224 225 226 227 228 230 233
295 291 288 285 282 279 277 275 273 271 269 267 264 262 259 256 254 252 251 249 247 245 242 242 240 237 235 234 234 234 233 232 231 229 227 225 224 225 226 227 228 231 233
298 295 291 288 284 281 279 277 275 272 269 267 265 262 259 256 254 252 251 249 247 246 243 242 240 239 236 234 234 232 232 231 231 230 228 227 226 225 226 227 228 230 232
299 297 294 291 287 284 281 278 276 274 271 267 265 262 259 256 253 251 250 248 247 245 243 241 240 239 238 236 233 231 231 231 231 230 229 228 226 226 225 227 228 229 231
302 299 296 293 290 287 284 281 279 276 273 269 265 262 259 257 254 252 249 247 246 244 244 241 240 240 239 236 234 231 230 230 230 230 228 227 226 226 225 226 228 229 230
303 301 299 296 293 290 287 283 280 277 274 270 266 263 260 258 255 253 250 247 245 243 243 242 241 240 239 237 234 232 231 230 229 229 227 226 227 227 226 226 227 228 229
305 302 300 298 296 293 289 286 283 279 275 271 267 264 261 259 256 254 251 248 245 243 242 242 240 240 238 235 233 232 231 229 228 227 226 226 226 226 226 226 227 227 228
308 305 303 301 298 295 291 287 283 280 277 273 269 266 262 259 256 255 252 249 246 243 241 240 239 240 238 236 233 231 230 229 227 226 225 224 224 224 224 225 226 226 225
311 308 306 303 300 296 292 288 284 281 277 274 271 267 264 261 257 255 253 250 247 244 241 240 239 238 238 236 233 232 231 228 226 225 224 223 222 223 223 224 224 224 224
314 312 309 307 303 299 295 290 286 282 278 274 271 268 265 262 259 257 254 251 247 245 242 240 239 238 237 235 233 231 231 229 226 225 223 221 221 221 222 223 223 222 222
316 313 311 309 306 302 297 293 288 284 279 276 272 269 266 263 261 258 255 251 248 245 242 240 239 237 236 235 233 231 229 229 226 225 223 221 221 221 222 223 222 222 221
317 314 313 310 307 303 299 294 290 286 282 278 274 270 268 265 262 259 255 252 248 245 242 240 238 236 235 234 232 231 229 228 227 224 222 221 221 222 222 222 220 221 221
319 316 314 311 308 304 301 297 292 288 285 280 275 272 270 267 263 259 256 252 248 245 242 240 237 236 235 233 231 230 229 228 227 224 222 221 221 222 221 220 219 220 221
321 318 315 313 310 307 304 300 296 292 288 283 278 274 270 267 262 259 256 253 249 245 242 240 237 235 234 233 231 228 228 227 226 224 223 221 221 222 221 220 219 220 220
322 320 317 315 312 309 306 303 299 295 291 287 282 277 272 267 263 259 256 253 250 247 243 240 237 235 232 231 230 227 225 225 224 224 224 222 221 221 220 220 220 220 220
323 321 318 316 313 311 308 305 301 297 293 289 285 279 275 269 263 260 257 253 249 246 243 240 237 234 231 228 227 225 224 223 221 222 223 222 221 220 220 220 220 220 218
325 322 320 318 316 313 310 306 303 300 296 291 286 281 277 273 267 262 258 254 249 245 241 239 237 234 231 228 225 223 223 222 221 221 221 223 222 221 220 219 219 219 218
326 324 322 320 319 316 312 308 305 302 298 294 290 284 278 274 269 263 258 254 248 243 241 238 235 232 231 228 224 223 222 222 221 221 222 223 222 221 221 219 219 219 219